Date String (YYYY-MM-DD hh:mm:ss) UTC,Instrument flags,Ambient pressure (hPa),Sample flow (lpm),Bypass flow (lpm),Sample temperature (°C),Ambient temperature (°C),ASC tube jacket temperature (°C),LED temperature (°C),Box temperature (°C),Sample RH (%),Span deviation,Mass concentration (μg/m³),Mass concentration (μg/m³),Mass concentration (μg/m³)
DateTimeUTC,F1_M11,P_M11,Q1_M11,Q2_M11,T1_M11,T2_M11,T3_M11,T4_M11,T5_M11,U1_M11,ZSPAN_M11,X0_M11,X2_M11,X1_M11
2021-11-22 14:00:00,,0832.0,5.01,0.00,22.7,21.9,00.0,31.6,24.4,10.5,0000.0,0007.83,0003.66,0003.40
2021-11-22 14:01:00,,0832.0,5.01,0.00,22.7,21.9,00.0,31.7,24.4,10.4,0000.0,0007.87,0003.68,0003.41
2021-11-22 14:02:00,,0831.9,5.01,0.00,22.7,21.9,00.0,31.7,24.4,10.4,0000.0,0007.87,0003.65,0003.40
2021-11-22 14:03:00,,0832.0,5.00,0.00,22.7,21.9,00.0,31.7,24.4,10.4,0000.0,0007.80,0003.67,0003.39
2021-11-22 14:04:00,,0832.0,4.99,0.00,22.7,21.9,00.0,31.7,24.4,10.4,0000.0,0007.82,0003.69,0003.39
2021-11-22 14:05:00,,0832.1,5.00,0.00,22.7,21.9,00.0,31.7,24.5,10.3,0000.0,0007.70,0003.70,0003.38
2021-11-22 14:06:00,,0832.1,5.01,0.00,22.7,21.9,00.0,31.7,24.4,10.3,0000.0,0007.59,0003.69,0003.38
2021-11-22 14:07:00,,0832.1,4.99,0.00,22.7,21.9,00.0,31.7,24.4,10.3,0000.0,0007.68,0003.72,0003.38
2021-11-22 14:08:00,,0832.1,5.00,0.00,22.7,21.9,00.0,31.7,24.4,10.3,0000.0,0007.74,0003.73,0003.38
2021-11-22 14:09:00,,0832.1,5.01,0.00,22.7,21.9,00.0,31.7,24.5,10.5,0000.0,0007.75,0003.74,0003.38
2021-11-22 14:10:00,,0832.1,4.99,0.00,22.7,21.9,00.0,31.7,24.5,10.4,0000.0,0007.20,0003.76,0003.39
2021-11-22 14:11:00,,0832.1,5.01,0.00,22.7,21.9,00.0,31.7,24.5,10.4,0000.0,0006.48,0003.75,0003.38
2021-11-22 14:12:00,,0832.1,5.00,0.00,22.7,21.9,00.0,31.7,24.5,10.3,0000.0,0006.55,0003.75,0003.37
2021-11-22 14:13:00,,0832.1,5.01,0.00,22.7,21.9,00.0,31.7,24.5,10.3,0000.0,0006.48,0003.75,0003.36
2021-11-22 14:14:00,,0832.3,4.98,0.00,22.7,22.0,00.0,31.7,24.5,10.3,0000.0,0007.64,0003.74,0003.35
2021-11-22 14:15:00,,0832.3,5.01,0.00,22.7,22.0,00.0,31.7,24.5,10.3,0000.0,0007.67,0003.69,0003.34
2021-11-22 14:16:00,,0832.3,5.00,0.00,22.7,22.0,00.0,31.7,24.6,10.3,0000.0,0007.66,0003.68,0003.33
2021-11-22 14:17:00,,0832.2,5.00,0.00,22.8,22.0,00.0,31.7,24.6,10.4,0000.0,0007.50,0003.67,0003.32
2021-11-22 14:18:00,,0832.2,5.00,0.00,22.8,22.0,00.0,31.7,24.6,10.4,0000.0,0007.43,0003.64,0003.30
2021-11-22 14:19:00,,0832.3,5.01,0.00,22.8,22.0,00.0,31.7,24.6,10.5,0000.0,0007.37,0003.63,0003.30
2021-11-22 14:20:00,,0832.3,4.99,0.00,22.8,22.0,00.0,31.7,24.6,10.6,0000.0,0007.52,0003.62,0003.30
2021-11-22 14:21:00,,0832.3,5.00,0.00,22.8,22.0,00.0,31.8,24.6,10.6,0000.0,0007.86,0003.63,0003.29
2021-11-22 14:22:00,,0832.3,5.00,0.00,22.8,22.0,00.0,31.8,24.6,10.6,0000.0,0008.63,0003.62,0003.29
2021-11-22 14:23:00,,0832.3,5.02,0.00,22.8,22.0,00.0,31.8,24.6,10.7,0000.0,0008.69,0003.63,0003.30
2021-11-22 14:24:00,,0832.2,4.99,0.00,22.8,22.0,00.0,31.8,24.6,10.7,0000.0,0008.73,0003.65,0003.31
2021-11-22 14:25:00,,0832.2,5.01,0.00,22.8,22.1,00.0,31.8,24.7,10.6,0000.0,0008.18,0003.65,0003.32
2021-11-22 14:26:00,,0832.1,4.98,0.00,22.8,22.1,00.0,31.8,24.7,10.7,0000.0,0007.80,0003.66,0003.34
2021-11-22 14:27:00,,0832.1,5.01,0.00,22.8,22.1,00.0,31.8,24.7,10.6,0000.0,0007.85,0003.66,0003.35
2021-11-22 14:28:00,,0832.1,5.00,0.00,22.9,22.1,00.0,31.8,24.7,10.4,0000.0,0007.89,0003.66,0003.36
2021-11-22 14:29:00,,0832.2,5.01,0.00,22.9,22.1,00.0,31.8,24.7,10.3,0000.0,0007.99,0003.69,0003.36
2021-11-22 14:30:00,,0832.3,5.00,0.00,22.9,22.1,00.0,31.8,24.7,10.6,0000.0,0008.19,0003.70,0003.35
2021-11-22 14:31:00,,0832.4,4.99,0.00,22.9,22.1,00.0,31.8,24.7,10.7,0000.0,0008.71,0003.73,0003.36
2021-11-22 14:32:00,,0832.3,5.00,0.00,22.9,22.2,00.0,31.8,24.7,10.8,0000.0,0008.41,0003.75,0003.37
2021-11-22 14:33:00,,0832.3,5.00,0.00,22.9,22.2,00.0,31.8,24.7,10.9,0000.0,0007.70,0003.77,0003.38
2021-11-22 14:34:00,,0832.4,5.01,0.00,22.9,22.2,00.0,31.8,24.7,10.6,0000.0,0007.40,0003.75,0003.38
2021-11-22 14:35:00,,0832.3,5.01,0.00,22.9,22.2,00.0,31.9,24.7,10.5,0000.0,0007.32,0003.73,0003.38
2021-11-22 14:36:00,,0832.3,4.98,0.00,22.9,22.2,00.0,31.9,24.8,10.3,0000.0,0007.33,0003.74,0003.36
2021-11-22 14:37:00,,0832.3,5.01,0.00,22.9,22.2,00.0,31.9,24.8,10.4,0000.0,0007.34,0003.73,0003.34
2021-11-22 14:38:00,,0832.3,5.00,0.00,23.0,22.2,00.0,31.9,24.8,10.4,0000.0,0007.19,0003.74,0003.34
2021-11-22 14:39:00,,0832.3,4.98,0.00,23.0,22.2,00.0,31.9,24.8,10.3,0000.0,0006.97,0003.74,0003.35
2021-11-22 14:40:00,,0832.3,5.00,0.00,23.0,22.2,00.0,31.9,24.8,10.2,0000.0,0007.14,0003.73,0003.35
2021-11-22 14:41:00,,0832.3,5.00,0.00,23.0,22.2,00.0,31.9,24.8,10.3,0000.0,0006.80,0003.73,0003.36
2021-11-22 14:42:00,,0832.3,5.01,0.00,23.0,22.2,00.0,31.9,24.8,10.4,0000.0,0005.53,0003.69,0003.36
2021-11-22 14:43:00,,0832.2,4.99,0.00,23.0,22.3,00.0,31.9,24.9,10.4,0000.0,0005.49,0003.65,0003.35
2021-11-22 14:44:00,,0832.2,5.00,0.00,23.0,22.3,00.0,32.0,24.9,10.4,0000.0,0005.46,0003.65,0003.34
2021-11-22 14:45:00,,0832.3,5.01,0.00,23.0,22.3,00.0,32.0,24.9,10.3,0000.0,0005.56,0003.67,0003.35
2021-11-22 14:46:00,,0832.3,4.99,0.00,23.1,22.3,00.0,32.0,24.9,10.4,0000.0,0005.79,0003.67,0003.36
2021-11-22 14:47:00,,0832.2,5.01,0.00,23.1,22.3,00.0,32.0,24.9,10.5,0000.0,0006.28,0003.70,0003.38
2021-11-22 14:48:00,,0832.2,5.01,0.00,23.1,22.3,00.0,32.0,24.9,10.6,0000.0,0006.56,0003.74,0003.41
2021-11-22 14:49:00,,0832.3,4.99,0.00,23.1,22.3,00.0,32.0,24.9,10.6,0000.0,0006.68,0003.76,0003.43
2021-11-22 14:50:00,,0832.2,5.01,0.00,23.1,22.3,00.0,32.0,24.9,10.6,0000.0,0006.78,0003.79,0003.46
2021-11-22 14:51:00,,0832.2,4.99,0.00,23.1,22.3,00.0,32.0,24.9,10.8,0000.0,0006.64,0003.80,0003.48
2021-11-22 14:52:00,,0832.2,5.00,0.00,23.1,22.4,00.0,32.1,24.9,10.7,0000.0,0006.93,0003.83,0003.50
2021-11-22 14:53:00,,0832.2,5.01,0.00,23.2,22.4,00.0,32.1,25.0,10.6,0000.0,0007.02,0003.87,0003.52
2021-11-22 14:54:00,,0832.2,4.99,0.00,23.2,22.4,00.0,32.1,25.0,10.6,0000.0,0007.11,0003.89,0003.55
2021-11-22 14:55:00,,0832.2,5.00,0.00,23.2,22.4,00.0,32.1,25.0,10.6,0000.0,0007.43,0003.91,0003.56
2021-11-22 14:56:00,,0832.3,5.00,0.00,23.2,22.4,00.0,32.1,25.0,10.6,0000.0,0007.66,0003.92,0003.58
2021-11-22 14:57:00,,0832.2,5.00,0.00,23.2,22.5,00.0,32.1,25.1,10.7,0000.0,0008.09,0003.94,0003.58
2021-11-22 14:58:00,,0832.2,5.00,0.00,23.2,22.5,00.0,32.1,25.0,10.7,0000.0,0008.19,0003.96,0003.59
2021-11-22 14:59:00,,0832.3,4.99,0.00,23.3,22.5,00.0,32.2,25.1,10.6,0000.0,0008.80,0003.97,0003.59
